User: anonymous   Login
Location: Unspecified
(0.0000°N, 0.0000°E)
Time: 07:00:55
(UTC+02:00)
Language:

Cosmos 1536 - Orbit

View from above orbital plane
View from above orbital plane
View from above satellite
View from above satellite

Ground track
Ground track

The orbit data is extracted from the following two-line orbital elements,

1 14699U 84013A   16271.95806973  .00001051  00000-0  72326-4 0  9990
2 14699  82.5266 223.3543 0011672 225.5907 134.4365 15.04835157773652
Epoch (UTC): 27 September 2016 22:59:37
Eccentricity: 0.0011672
inclination: 82.5266°
perigee height: 544 km
apogee height: 560 km
right ascension of ascending node: 223.3543°
argument of perigee: 225.5907°
revolutions per day: 15.04835157
mean anomaly at epoch: 134.4365°
orbit number at epoch: 77365

The dashed part of the orbit path shows where the satellite is in the earth's shadow,  

DLR